Monterrey Gen Maria, Mexico

2:44 PM CST on January 16, 2018 (GMT -0600)
Gen Mariano Escobedo International

Weather History for MMMY - April, 2013

Change the Weather History Date:

Friday, April 5, 2013

  Actual Average Record
Temperature  
Mean Temperature 66 °F -  
Max Temperature 82 °F 84 °F 100 °F (2005)
Min Temperature 51 °F 61 °F 51 °F (2013)
Cooling Degree Days 2    
Growing Degree Days 16 (Base 50)    
Moisture  
Dew Point 48 °F    
Average Humidity 54    
Maximum Humidity 82    
Minimum Humidity 23    
Precipitation  
Precipitation 0.00 in - - ()
Sea Level Pressure  
Sea Level Pressure 30.11 in    
Wind  
Wind Speed 5 mph ()    
Max Wind Speed 16 mph    
Max Gust Speed -    
Visibility 14.5 miles    
Events      
Averages and records for this station are not official NWS values.
T = Trace of Precipitation, MM = Missing Value Source: Averaged Metar Reports

Daily Weather History Graph

Daily Weather History Graph

Search for Another Location

Airport or City:

Trip Planner

Search our weather history database for the weather conditions in past years. The results will help you decide how hot, cold, wet, or windy it might be!

Date:

Astronomy

Apr. 05, 2013 Rise Set
Actual Time 6:27 AM CST 6:59 PM CST
Civil Twilight 6:03 AM CST 7:22 PM CST
Nautical Twilight 5:36 AM CST 7:49 PM CST
Astronomical Twilight 5:09 AM CST 8:17 PM CST
Moon 3:08 AM CST (4/5) 2:49 PM CST (4/5)
Length of Visible Light 13h 18m
Length of Day
12h 31m
Waning Crescent, 23% of the Moon is Illuminated
Apr 5
Waning Crescent
Apr 10
New
Apr 18
First Quarter
Apr 25
Full
May 2
Last Quarter

Hourly Weather History & Observations

Time (CST) Temp. Dew Point Humidity Pressure Visibility Wind Dir Wind Speed Gust Speed Precip Events Conditions
12:41 AM 62.6 °F 46.4 °F 55% 30.16 in 15.0 mi Calm Calm - N/A   Clear
1:44 AM 60.8 °F 46.4 °F 59% 30.16 in 15.0 mi Calm Calm - N/A   Clear
2:45 AM 57.2 °F 46.4 °F 67% 30.17 in 15.0 mi Calm Calm - N/A   Clear
3:42 AM 55.4 °F 46.4 °F 72% 30.15 in 15.0 mi North 5.8 mph - N/A   Clear
4:41 AM 53.6 °F 44.6 °F 72% 30.16 in 15.0 mi Calm Calm - N/A   Clear
5:46 AM 51.8 °F 44.6 °F 76% 30.29 in 15.0 mi SSW 5.8 mph - N/A   Clear
6:43 AM 53.6 °F 48.2 °F 82% 30.20 in 15.0 mi Calm Calm - N/A   Mostly Cloudy
7:40 AM 57.2 °F 51.8 °F 82% 30.23 in 15.0 mi SE 9.2 mph - N/A   Mostly Cloudy
8:40 AM 60.8 °F 53.6 °F 77% 30.24 in 12.0 mi SSE 8.1 mph - N/A   Mostly Cloudy
9:44 AM 60.8 °F 53.6 °F 77% 30.24 in 12.0 mi East 9.2 mph - N/A   Overcast
12:45 PM 75.2 °F 51.8 °F 44% 30.14 in 10.0 mi ESE 11.5 mph - N/A   Mostly Cloudy
1:42 PM 77.0 °F 48.2 °F 36% 30.09 in 15.0 mi SE 11.5 mph - N/A   Mostly Cloudy
2:48 PM 80.6 °F 46.4 °F 30% 30.09 in 15.0 mi East 12.7 mph - N/A   Mostly Cloudy
3:49 PM 82.4 °F 42.8 °F 25% 30.00 in 15.0 mi North 10.4 mph - N/A   Mostly Cloudy
4:44 PM 82.4 °F 41.0 °F 23% 29.99 in 15.0 mi ESE 11.5 mph - N/A   Mostly Cloudy
5:45 PM 80.6 °F 42.8 °F 26% 29.99 in 15.0 mi East 11.5 mph - N/A   Mostly Cloudy
6:40 PM 80.6 °F 41.0 °F 24% 29.98 in 15.0 mi East 8.1 mph - N/A   Mostly Cloudy
7:51 PM 75.2 °F 41.0 °F 29% 30.00 in 15.0 mi ESE 6.9 mph - N/A   Mostly Cloudy
8:44 PM 73.4 °F 51.8 °F 47% 30.02 in 15.0 mi ESE 12.7 mph - N/A   Mostly Cloudy
9:40 PM 68.0 °F 51.8 °F 56% 30.05 in 15.0 mi ESE 16.1 mph - N/A   Scattered Clouds
10:41 PM 66.2 °F 51.8 °F 60% 30.04 in 15.0 mi East 9.2 mph - N/A   Scattered Clouds
11:45 PM 64.4 °F 53.6 °F 68% 30.06 in 15.0 mi East 13.8 mph - N/A   Mostly Cloudy